Location: Spring Creek
(38.2870°N, 100.2160°W)
Time: 08:28:22
(UTC+00:00)

SL-16 R/B - Pass Details

Date: 08 May 2021
Orbit: 842 x 845 km, 71.0° (Epoch: 21 June)

Event Time Altitude Azimuth Distance (km) Brightness Sun altitude
Rises 10:31:13 0° 173° (S) 3,382 5.1 -12.1°
Reaches altitude 10° 10:33:54 10° 163° (SSE) 2,452 4.4 -11.6°
Maximum altitude 10:38:46 31° 103° (ESE) 1,442 3.9 -10.8°
Drops below altitude 10° 10:43:40 10° 43° (NE) 2,468 6.0 -10.0°
Sets 10:46:21 0° 34° (NNE) 3,407 6.7 -9.5°
